This is the latest recevied weather packets stored in our database for station/object IK3ZGB. If no packets are shown the sender has not sent any weather packets the latest 10 day(s).
| Time | Temp. | Humidity | Pressure | Rain* | Wind** | Luminosity | Snow |
|---|---|---|---|---|---|---|---|
| 1777782524 | 13.89° C | 67% | 1021.2 hPa | - | - | - | - |
| 1777781924 | 13.33° C | 68% | 1021 hPa | - | - | - | - |
| 1777781324 | 13.33° C | 67% | 1020.9 hPa | - | - | - | - |
| 1777780726 | 13.33° C | 67% | 1021 hPa | - | - | - | - |
| 1777780125 | 13.89° C | 66% | 1020.9 hPa | - | - | - | - |
| 1777779525 | 13.89° C | 65% | 1020.7 hPa | - | - | - | - |
| 1777778925 | 14.44° C | 64% | 1020.6 hPa | - | - | - | - |
| 1777778325 | 14.44° C | 64% | 1021.2 hPa | - | - | - | - |
| 1777777724 | 14.44° C | 64% | 1020.9 hPa | - | - | - | - |
| 1777777125 | 15° C | 63% | 1021.2 hPa | - | - | - | - |
| 1777776524 | 14.44° C | 63% | 1021 hPa | - | - | - | - |
| 1777775925 | 14.44° C | 63% | 1020.9 hPa | - | - | - | - |
| 1777775324 | 14.44° C | 63% | 1021.3 hPa | - | - | - | - |
| 1777774726 | 14.44° C | 64% | 1021.3 hPa | - | - | - | - |
| 1777774124 | 14.44° C | 65% | 1021.2 hPa | - | - | - | - |
| 1777773524 | 13.33° C | 66% | 1021.2 hPa | - | - | - | - |
| 1777772924 | 14.44° C | 67% | 1021 hPa | - | - | - | - |
| 1777772325 | 13.89° C | 66% | 1021 hPa | - | - | - | - |
| 1777771725 | 13.89° C | 67% | 1021.1 hPa | - | - | - | - |
| 1777771126 | 13.89° C | 67% | 1021.2 hPa | - | - | - | - |
| 1777770524 | 14.44° C | 67% | 1021 hPa | - | - | - | - |
| 1777769925 | 14.44° C | 67% | 1021.4 hPa | - | - | - | - |
| 1777769325 | 14.44° C | 67% | 1021.4 hPa | - | - | - | - |
| 1777768724 | 14.44° C | 66% | 1021.6 hPa | - | - | - | - |
| 1777768123 | 14.44° C | 66% | 1021.4 hPa | - | - | - | - |
* Rain since midnight (hover to see other rain measurements)
** Current wind speed in m/s (hover to see current wind gust speed)